Regional Weather Roundup
Issued by NWS

Home | Current Version | Previous Version | Graphics & Text | Print | Product List | Glossary On
Versions: 1 2 3 4 5 6 7 8 9 10 11 12 13 14 15 16 17 18 19 20 21 22 23 24 25 26 27 28 29 30 31 32 33 34 35 36 37 38 39 40 41 42 43 44 45 46 47 48 49 50
611
ASUS45 KSLC 100810
RWRUT

UTAH REGIONAL WEATHER ROUNDUP
NATIONAL WEATHER SERVICE SALT LAKE CITY UT
100 AM MST SAT DEC 10 2016

UTZ001>011-023>025-100900-

NORTHERN UTAH

CITY           SKY/WX    TMP DP  RH WIND       PRES   REMARKS
BRIGHAM CITY     N/A     33  31  92 CALM      30.04R
HILL AFB       CLOUDY    41  29  63 SW12      30.02F
LOGAN          CLOUDY    33  33 100 SW3       30.02F FOG
OGDEN          CLOUDY    37  30  75 S5        30.02F WCI  33
SALT LAKE CITY CLOUDY    33  30  88 NW3       30.02F
WENDOVER       MOCLDY    25  19  80 N3        30.02F
HEBER CITY     CLOUDY    32  27  80 NW6       30.05F WCI  26

$$

UTZ011>015-024>027-100900-

CENTRAL/NORTHEAST UTAH

CITY           SKY/WX    TMP DP  RH WIND       PRES   REMARKS
PROVO AIRPORT  CLOUDY    39  28  64 E8        30.07F WCI  33
MOAB/CANYONLAN CLEAR     21  11  65 SW5       30.20F WCI  15
DELTA          CLOUDY    41  32  70 S17G25    30.08F
PRICE          PTCLDY    20  13  74 NE6       30.18F WCI  12
RICHFIELD      MOCLDY    32  27  80 NW2       30.13F
ROOSEVELT      CLOUDY    18  14  86 SW5       30.18F WCI  11
VERNAL         CLOUDY    18  12  77 W3        30.15F

$$

UTZ013>016-019>022-027-100900-

SOUTHERN UTAH

CITY           SKY/WX    TMP DP  RH WIND       PRES   REMARKS
BRYCE CANYON   CLEAR     15  11  83 W5        30.23F WCI   8
CEDAR CITY     PTCLDY    37  32  82 SW13      30.15F WCI  29
MILFORD        PTCLDY    37  32  82 S22       30.13F WCI  26
ST GEORGE      CLOUDY    36  23  60 CALM      30.24F
HANKSVILLE     PTCLDY    18   9  68 CALM      30.25S
KANAB          CLEAR     28  25  86 NE3       30.27F
BLANDING       CLEAR     29  22  76 N6        30.30F WCI  23

$$

REGIONAL REPORTS     COLORADO/ARIZONA

CITY           SKY/WX    TMP DP  RH WIND       PRES   REMARKS
CRAIG, CO      CLOUDY    24  21  88 E7        30.10F WCI  16
GRAND JUNCTION CLOUDY    23  19  85 NE5       30.20F WCI  17
RIFLE, CO      CLOUDY    24  20  84 SE5       30.20F WCI  18
MONTROSE, CO   CLOUDY    27  22  81 SE7       30.22F WCI  19
CORTEZ, CO     CLOUDY    23  21  92 E7        30.25F WCI  15
COLORADO CITY    N/A     28  27  93 SE5       30.25F WCI  23
PAGE, AZ       CLEAR     36  17  46 W3        30.22F
GRAND CANYON   CLEAR     24  23  96 E3        30.27F
KINGMAN, AZ    CLEAR     37  32  82 S5        30.20F WCI  33
FLAGSTAFF, AZ  PTCLDY    24  22  91 CALM      30.26F

$$

REGIONAL REPORTS    NEVADA/IDAHO/WYOMING

CITY           SKY/WX    TMP DP  RH WIND       PRES   REMARKS
LAS VEGAS, NV  PTCLDY    45  15  30 CALM      30.19F
ELY, NY        MOCLDY    28  22  78 CALM      30.14F
ELKO, NV       CLOUDY    40  27  59 S6        30.01F
POCATELLO, ID  LGT RAIN  38  34  85 S16       29.96F WCI  29
BURLEY, ID     LGT RAIN  36  34  92 SW3       29.95F
FORT BRIDGER,    N/A     33  23  64 W14       30.03F WCI  24
EVANSTON, WY   CLOUDY    36  22  56 SW13      30.01F WCI  27
ROCK SPRINGS,  CLOUDY    29  23  78 W9        30.01F WCI  20
KEMMERER, WY     N/A     30  27  86 SW8       30.00F WCI  23

$$




USA.gov is the U.S. government's official web portal to all federal, state and local government web resources and services.